Groton, CT

2:51 AM EDT on May 29, 2017 (GMT -0400)
Groton-New London

Weather History for KGON - October, 2012

Change the Weather History Date:

Monday, October 29, 2012

  Actual Average Record
Temperature  
Mean Temperature 60 °F -  
Max Temperature 66 °F 59 °F 77 °F (1971)
Min Temperature 54 °F 37 °F 25 °F (1959)
Degree Days  
Heating Degree Days 5    
Growing Degree Days 10 (Base 50)    
Moisture  
Dew Point 58 °F    
Average Humidity 87    
Maximum Humidity 94    
Minimum Humidity 70    
Precipitation  
Precipitation 0.32 in - - ()
Sea Level Pressure  
Sea Level Pressure 29.11 in    
Wind  
Wind Speed 29 mph (ENE)    
Max Wind Speed 45 mph    
Max Gust Speed 70 mph    
Visibility 4 miles    
Events Rain    
Averages and records for this station are not official NWS values.
T = Trace of Precipitation, MM = Missing Value Source: NWS Daily Summary

Daily Weather History Graph

Daily Weather History Graph

Search for Another Location

Airport or City:

Trip Planner

Search our weather history database for the weather conditions in past years. The results will help you decide how hot, cold, wet, or windy it might be!

Date:

Astronomy

Oct. 29, 2012 Rise Set
Actual Time 7:16 AM EDT 5:46 PM EDT
Civil Twilight 6:47 AM EDT 6:15 PM EDT
Nautical Twilight 6:15 AM EDT 6:47 PM EDT
Astronomical Twilight 5:43 AM EDT 7:19 PM EDT
Moon 5:36 PM EDT 7:04 AM EDT
Length of Visible Light 11h 27m
Length of Day
10h 29m
Full, 100% of the Moon is Illuminated
Oct 29
Full
Oct 29
Full
Nov 6
Last Quarter
Nov 13
New
Nov 20
First Quarter

Hourly Weather History & Observations

Time (EDT) Temp. Dew Point Humidity Pressure Visibility Wind Dir Wind Speed Gust Speed Precip Events Conditions
12:56 AM 54.0 °F 50.0 °F 86% 29.64 in 6.0 mi NE 19.6 mph 27.6 mph 0.00 in   Overcast
1:56 AM 54.0 °F 51.1 °F 90% 29.59 in 8.0 mi NE 18.4 mph 27.6 mph 0.00 in   Overcast
2:56 AM 55.0 °F 51.1 °F 86% 29.55 in 10.0 mi NE 24.2 mph 34.5 mph N/A   Overcast
3:56 AM 55.9 °F 51.1 °F 84% 29.52 in 8.0 mi NNE 25.3 mph 36.8 mph N/A   Overcast
4:56 AM 55.9 °F 52.0 °F 87% 29.47 in 7.0 mi NE 27.6 mph 41.4 mph N/A   Overcast
5:56 AM 55.9 °F 52.0 °F 87% 29.44 in 7.0 mi NE 20.7 mph 33.4 mph N/A   Overcast
6:56 AM 55.9 °F 53.1 °F 90% 29.41 in 7.0 mi NE 27.6 mph 38.0 mph 0.00 in   Overcast
7:56 AM 57.2 °F 53.6 °F 88% 29.39 in 5.0 mi NE 26.5 mph 35.7 mph N/A   Overcast
8:56 AM 57.9 °F 54.0 °F 87% 29.35 in 4.0 mi NE 28.8 mph 38.0 mph 0.00 in   Overcast
9:56 AM 57.9 °F 55.0 °F 90% 29.29 in 2.5 mi NE 29.9 mph 47.2 mph 0.00 in Rain Light Rain
10:08 AM 59.0 °F 55.4 °F 88% 29.28 in 5.0 mi NE 29.9 mph 44.9 mph 0.00 in   Overcast
10:30 AM 59.0 °F 55.4 °F 88% 29.25 in 1.8 mi NE 28.8 mph 42.6 mph 0.00 in Rain Light Rain
10:56 AM 59.0 °F 55.9 °F 90% 29.23 in 1.8 mi NE 32.2 mph 43.7 mph 0.00 in Rain Light Rain
11:06 AM 59.0 °F 55.4 °F 88% 29.22 in 2.0 mi NE 32.2 mph 46.0 mph 0.01 in Rain Light Rain
11:13 AM 59.0 °F 55.4 °F 88% 29.21 in 2.5 mi NE 34.5 mph 47.2 mph 0.01 in Rain Light Rain
11:20 AM 60.8 °F 55.4 °F 82% 29.19 in 4.0 mi NE 35.7 mph 51.8 mph 0.01 in Rain Light Rain
11:27 AM 60.8 °F 57.2 °F 88% 29.18 in 1.8 mi NE 32.2 mph 43.7 mph N/A Rain Light Rain
11:56 AM 60.8 °F 57.2 °F 88% 29.15 in 1.2 mi NE 29.9 mph 44.9 mph N/A Rain Light Rain
12:56 PM 61.0 °F 57.9 °F 90% 29.08 in 1.0 mi NE 36.8 mph 46.0 mph 0.13 in Rain Rain
1:06 PM 60.8 °F 57.2 °F 88% 29.05 in 1.0 mi NE 36.8 mph 49.5 mph 0.01 in Rain Rain
1:15 PM 60.8 °F 57.2 °F 88% 29.05 in 0.8 mi NE 38.0 mph 50.6 mph 0.03 in Rain Rain
1:28 PM 60.8 °F 59.0 °F 94% 29.04 in 0.8 mi NE 32.2 mph 42.6 mph 0.05 in Rain Rain
1:49 PM 60.8 °F 59.0 °F 94% 29.00 in 1.0 mi NE 29.9 mph 50.6 mph 0.09 in Rain Light Rain
1:56 PM 62.1 °F 59.0 °F 90% 28.99 in 1.2 mi NE 34.5 mph 50.6 mph 0.10 in Rain Light Rain
2:44 PM 62.6 °F 60.8 °F 94% 28.91 in 1.2 mi ENE 33.4 mph 57.5 mph 0.01 in Rain Light Rain
2:56 PM 64.0 °F 61.0 °F 90% 28.90 in 2.0 mi ENE 40.3 mph 56.4 mph 0.01 in Rain Light Rain
3:15 PM 64.4 °F 60.8 °F 88% 28.87 in 4.0 mi ENE 39.1 mph 70.2 mph 0.00 in Rain Light Rain
3:30 PM 64.4 °F 60.8 °F 88% 28.86 in 2.5 mi ENE 44.9 mph 66.7 mph 0.00 in Rain Light Rain
3:45 PM 64.4 °F 60.8 °F 88% 28.86 in 1.0 mi ENE 39.1 mph 61.0 mph 0.00 in Rain Light Rain
3:56 PM 64.9 °F 61.0 °F 87% 28.86 in 1.8 mi ENE 40.3 mph 65.6 mph 0.00 in Rain Light Rain
4:29 PM 66.2 °F 60.8 °F 83% 28.85 in 3.0 mi East 33.4 mph 62.1 mph 0.01 in Rain Light Rain
4:37 PM 64.4 °F 62.6 °F 94% 28.86 in 1.8 mi East 39.1 mph 66.7 mph 0.01 in Rain Light Rain
4:48 PM 64.4 °F 62.6 °F 94% 28.87 in 2.5 mi East 35.7 mph 70.2 mph 0.01 in Rain Light Rain
4:56 PM 64.9 °F 62.1 °F 90% 28.88 in 2.5 mi East 32.2 mph 56.4 mph 0.01 in Rain Light Rain
5:03 PM 64.4 °F 62.6 °F 94% 28.88 in 1.8 mi East 36.8 mph 54.1 mph 0.00 in Rain Light Rain
5:11 PM 64.4 °F 62.6 °F 94% 28.89 in 2.0 mi East 42.6 mph 62.1 mph 0.00 in Rain Light Rain
5:13 PM 64.4 °F 62.6 °F 94% 28.90 in 1.8 mi East 35.7 mph 62.1 mph 0.00 in Rain Light Rain
5:56 PM 64.9 °F 61.0 °F 87% 28.95 in 1.8 mi East 36.8 mph 55.2 mph 0.03 in Rain Light Rain
6:08 PM 64.4 °F 60.8 °F 88% 28.95 in 3.0 mi East 31.1 mph 55.2 mph 0.00 in Rain Light Rain
6:25 PM 64.4 °F 60.8 °F 88% 28.95 in 1.8 mi ESE 27.6 mph 52.9 mph 0.03 in Rain Heavy Rain
6:36 PM 64.4 °F 60.8 °F 88% 28.94 in 2.5 mi East 27.6 mph 44.9 mph 0.03 in Rain Light Rain
6:39 PM 64.4 °F 60.8 °F 88% 28.96 in 3.0 mi East 36.8 mph 51.8 mph 0.03 in Rain Light Rain
6:56 PM 66.0 °F 59.0 °F 78% 28.99 in 4.0 mi ESE 32.2 mph 57.5 mph 0.03 in   Haze
7:13 PM 64.4 °F 59.0 °F 83% 29.00 in 4.0 mi East 28.8 mph 44.9 mph N/A   Haze
7:56 PM 64.4 °F 60.8 °F 88% 29.03 in 4.0 mi East 28.8 mph 41.4 mph N/A   Haze
8:56 PM 63.0 °F 57.9 °F 84% 29.08 in 5.0 mi ESE 28.8 mph 42.6 mph 0.01 in Rain Light Rain
9:56 PM 64.0 °F 57.0 °F 78% 29.12 in 5.0 mi ESE 24.2 mph 29.9 mph 0.00 in   Haze
10:56 PM 64.0 °F 54.0 °F 70% 29.15 in 7.0 mi SE 23.0 mph 39.1 mph N/A   Mostly Cloudy
11:15 PM 62.6 °F 57.2 °F 82% 29.17 in 5.0 mi SSE 21.9 mph - 0.00 in   Haze
11:39 PM 62.6 °F 57.2 °F 82% 29.18 in 6.0 mi SE 23.0 mph - 0.00 in   Haze
11:56 PM 63.0 °F 55.0 °F 75% 29.20 in 7.0 mi SSE 28.8 mph 36.8 mph 0.00 in   Overcast